Regional Weather Roundup
Issued by NWS

Home | Current Version | Previous Version | Graphics & Text | Print | Product List | Glossary On
Versions: 1 2 3 4 5 6 7 8 9 10 11 12 13 14 15 16 17 18 19 20 21 22 23 24 25 26 27 28 29 30 31 32 33 34 35 36 37 38 39 40 41 42 43 44 45 46 47 48 49 50
000
ASUS43 KFSD 290110
RWRSD

WEATHER ROUNDUP FOR SOUTH DAKOTA
NATIONAL WEATHER SERVICE SIOUX FALLS SD
800 PM CDT MON JUL 28 2014

NOTE: "FAIR" INDICATES FEW OR NO CLOUDS BELOW 12,000 FEET WITH NO
SIGNIFICANT WEATHER AND/OR OBSTRUCTIONS TO VISIBILITY.


SDZ001>005-009-010-012>017-290200-
NORTHWEST AND NORTH CENTRAL SOUTH DAKOTA

CITY           SKY/WX    TMP DP  RH WIND       PRES   REMARKS
BUFFALO          N/A     76  52  43 E13       30.18F
FAITH            N/A     75  52  44 E8        30.24S
MOBRIDGE       SUNNY     73  52  47 NE6       30.21F
$$

SDZ012>016-024>037-041>051-057-063-072>074-290200-
SOUTHWEST AND SOUTH CENTRAL SOUTH DAKOTA

CITY           SKY/WX    TMP DP  RH WIND       PRES   REMARKS
RAPID CTY ARPT SUNNY     73  57  57 SE7       30.23F
PIERRE         SUNNY     74  53  48 NE8       30.20F
CUSTER         SUNNY     70  51  51 E9        30.35F
ELLSWORTH AFB  MOSUNNY   79  53  40 E7        30.23S
PHILIP         SUNNY     79  50  36 E14       30.21R
PINE RIDGE     SUNNY     79  56  45 E9        30.21S
WINNER         FAIR      79  49  34 NE6       30.21F
$$

SDZ004>011-016>023-039-040-290200-
NORTHEAST SOUTH DAKOTA

CITY           SKY/WX    TMP DP  RH WIND       PRES   REMARKS
ABERDEEN       CLEAR     68  52  56 NE7       30.22F
WATERTOWN      PTCLDY    67  50  54 N8        30.22F
SISSETON         N/A     69  55  60 N5        30.20F
$$

SDZ017-020-022-023-036>040-048>070-290200-
SOUTHEAST SOUTH DAKOTA

CITY           SKY/WX    TMP DP  RH WIND       PRES   REMARKS
SIOUX FALLS    PTCLDY    70  54  56 NE8       30.20F
HURON          CLEAR     72  51  47 NE7       30.21S
CHAMBERLAIN    SUNNY     74  52  46 E5        30.21S
MITCHELL       CLEAR     72  54  53 N5        30.21F
YANKTON        CLEAR     72  54  53 NW5       30.20F
$$

ABBREVIATIONS USED IN REMARKS
   TC - TEMPERATURE IN CELSIUS
  WCI - WIND CHILL INDEX
   HX - HEAT INDEX
  VSB - VISIBILITY



USA.gov is the U.S. government's official web portal to all federal, state and local government web resources and services.